RH
6 7 8 8 9 9 9 9 8 8 9 8 8 8 8 8 8 9 9 8 7 6 6 6 4 4 3 4 4 3 3 4 4 5 7 7 8 10 12 14 15 16 17 16 18 22 24 25 26 29 38 47 53 58 65 73 76 79 84 87 86 87 88 86 84 83 81 80 80 77 72 69 66 61 61 59 56 61 63 60 58 54 46 41 40 41 45 47
6 7 8 8 9 9 9 9 8 9 9 9 9 8 8 8 8 9 9 8 7 6 6 6 5 4 3 3 3 4 5 5 5 6 8 8 9 10 12 13 14 14 15 16 18 21 23 23 23 27 38 48 55 61 66 73 76 79 82 84 85 85 85 83 82 83 78 75 75 75 73 69 63 60 64 64 60 62 64 59 56 52 45 41 40 42 45 47
6 7 8 9 9 9 9 9 9 9 9 9 9 8 8 8 8 8 9 9 8 7 7 7 6 5 4 5 6 7 9 9 9 9 10 10 11 10 11 11 12 12 14 16 17 19 21 22 23 29 40 47 55 62 68 73 75 78 80 81 82 82 81 80 80 80 74 71 73 75 73 68 61 61 67 68 63 63 63 58 54 53 49 44 42 42 46 48
5 6 7 8 9 9 9 9 9 9 9 9 9 8 9 8 9 9 9 9 8 8 7 7 7 5 5 6 8 10 10 12 12 11 10 10 10 10 10 9 10 11 13 15 16 17 19 22 24 32 41 44 51 61 68 71 71 76 80 79 77 77 78 78 77 77 74 72 73 74 72 69 64 63 67 69 67 66 65 61 57 55 53 49 46 43 46 49
5 6 7 8 9 9 9 9 9 9 9 9 9 9 9 8 9 8 8 9 8 8 7 7 6 6 7 7 9 10 12 16 16 13 12 10 10 9 9 8 8 10 11 13 15 18 19 22 26 35 41 41 49 57 61 64 66 73 77 74 73 74 75 75 75 77 77 76 74 73 73 71 68 67 69 69 71 70 67 66 63 60 56 50 45 45 46 48
5 5 6 7 9 9 9 9 9 9 9 9 9 9 9 9 9 9 9 8 8 8 7 6 6 6 7 8 9 11 16 20 18 16 15 13 10 9 9 8 7 8 10 12 15 18 20 23 27 33 37 38 47 54 54 55 59 69 73 70 69 70 71 70 72 76 79 79 77 77 75 73 73 73 73 71 70 70 69 69 69 66 60 49 43 45 46 47
6 5 5 6 8 9 9 9 9 9 9 10 10 10 10 9 9 9 9 8 8 8 7 6 6 6 8 10 11 13 17 17 15 15 14 13 11 9 9 8 7 6 9 12 17 20 21 24 25 27 30 32 41 52 54 54 54 64 72 69 67 67 67 67 69 75 78 77 76 77 77 77 78 78 75 71 68 69 70 71 73 71 65 55 46 44 45 47
7 5 5 5 7 8 9 9 9 10 10 10 10 10 10 10 9 9 9 9 8 8 8 7 7 8 9 11 11 13 14 12 12 13 12 11 11 9 9 8 7 6 8 13 18 20 20 22 21 21 26 28 35 46 53 56 55 60 67 67 65 67 67 67 69 73 74 72 71 71 76 79 79 77 74 72 68 68 69 68 73 76 71 64 53 47 45 48
7 7 5 5 5 7 8 9 10 10 10 10 10 10 11 10 10 10 10 10 10 9 9 8 9 9 9 10 12 14 12 9 11 12 11 10 9 9 9 8 7 6 8 12 16 18 19 20 18 19 25 28 30 39 50 57 58 57 60 64 66 67 67 68 71 71 69 69 68 68 74 78 76 74 72 70 68 68 69 67 69 74 75 70 60 50 46 48
7 7 6 5 4 5 7 9 10 10 10 10 10 11 11 11 11 12 12 13 13 12 11 10 10 9 10 12 14 15 11 8 9 10 11 9 8 8 8 8 7 7 8 11 14 17 18 19 17 19 25 27 27 36 45 51 55 56 57 64 67 67 68 69 70 70 68 66 66 67 72 75 71 70 71 69 68 69 69 68 68 71 75 73 65 55 49 48
7 6 7 6 5 5 5 7 10 10 11 10 11 12 12 13 14 14 14 14 15 15 14 12 11 11 12 13 15 15 10 8 9 9 9 8 8 8 9 10 8 7 8 9 12 16 17 18 17 20 24 25 26 35 42 46 54 57 58 66 68 66 68 70 72 73 70 66 64 64 67 69 67 68 69 67 67 69 69 69 69 71 75 74 68 62 53 50
8 7 6 6 5 4 5 7 8 10 10 10 11 12 13 14 14 14 14 14 15 15 15 14 13 12 13 13 13 13 10 8 8 8 9 9 9 9 10 11 9 8 8 9 11 15 17 17 17 21 24 24 27 34 41 49 57 59 60 67 69 67 68 70 72 73 71 70 67 65 65 67 68 68 66 65 66 69 68 67 69 73 77 74 71 67 58 53
10 8 7 6 6 5 5 6 8 9 10 11 12 13 14 13 14 14 14 14 13 14 15 14 13 12 13 14 13 12 11 9 8 8 9 9 9 10 10 11 10 9 8 8 10 14 17 16 16 22 26 26 27 30 37 47 60 62 61 69 72 68 69 70 72 73 71 71 69 66 68 70 71 68 65 65 66 67 67 66 68 73 78 76 72 70 63 58
9 9 8 7 6 5 5 6 8 9 10 12 13 14 14 14 14 14 14 13 13 14 15 15 14 13 14 14 13 12 11 9 8 9 9 10 10 10 10 11 11 9 8 7 9 12 16 16 15 19 25 25 25 30 36 45 57 64 63 68 73 69 70 72 73 73 71 70 67 65 68 69 72 71 67 66 66 66 68 66 66 72 78 77 74 73 68 62
8 9 9 7 6 5 5 6 8 9 11 12 13 13 14 14 15 14 14 14 13 13 14 15 15 15 15 14 13 12 11 9 8 8 10 10 10 11 11 11 11 10 9 7 8 10 13 15 14 17 24 26 25 28 35 41 49 60 64 67 70 65 67 72 73 73 73 72 67 63 66 67 68 69 66 66 65 63 66 66 65 73 79 77 74 74 72 67
7 7 9 8 7 5 5 6 8 10 11 11 11 12 13 14 15 15 16 15 13 13 14 15 15 16 15 15 13 12 11 8 7 9 10 10 10 10 10 10 11 11 10 8 7 9 11 13 13 17 25 26 25 27 29 35 41 49 55 59 61 60 62 67 71 73 73 73 69 64 65 65 64 64 64 65 63 60 63 66 67 73 79 78 75 74 75 72
7 6 7 8 7 6 5 6 9 10 11 11 11 12 12 13 13 14 15 15 14 14 14 16 16 16 15 14 13 12 10 8 7 9 10 9 9 9 10 10 11 10 10 8 8 9 10 12 13 19 27 25 26 27 26 28 33 40 43 46 50 54 60 64 66 72 72 71 69 67 66 64 64 65 66 67 64 60 61 65 69 73 74 75 75 76 79 77
9 7 6 7 7 6 5 6 8 10 10 11 12 13 13 13 13 14 14 14 14 14 16 18 17 16 15 14 13 12 11 9 8 8 9 9 9 10 10 10 10 10 10 9 8 8 8 9 13 19 25 24 24 26 26 27 28 31 34 39 43 49 60 62 61 68 71 69 69 67 65 65 66 67 68 68 65 63 62 64 69 71 70 72 76 79 80 80
10 9 6 6 7 7 5 5 8 10 10 11 12 12 13 12 13 15 14 13 14 15 16 16 16 16 15 14 13 11 10 10 9 8 8 9 10 10 11 11 11 11 10 10 8 8 7 8 12 17 19 21 22 22 24 26 26 25 27 35 42 46 55 60 60 64 66 68 70 67 66 66 67 68 70 70 68 65 65 66 67 68 68 70 77 80 80 81
10 10 8 6 6 7 5 5 7 9 10 11 11 11 11 12 14 15 13 13 14 13 13 13 13 15 15 16 14 12 10 10 9 10 10 11 12 12 13 13 13 12 11 11 10 9 9 9 11 14 16 18 21 20 20 24 26 28 26 29 37 43 47 53 58 62 61 64 67 66 66 67 68 71 73 72 71 69 69 69 67 67 68 70 78 80 79 81
9 9 9 7 6 7 6 5 7 9 10 10 11 11 11 12 13 14 14 14 12 12 12 12 13 15 15 16 16 14 11 10 9 11 13 15 15 15 14 14 14 14 13 12 11 11 12 12 11 12 14 16 19 21 21 23 27 29 27 26 33 39 42 47 55 62 62 61 64 64 65 67 67 68 71 72 73 72 71 70 69 69 70 71 77 80 79 81
10 9 9 8 7 6 6 5 5 8 10 10 10 10 10 10 11 13 15 15 13 12 13 13 15 16 15 16 16 14 12 11 10 12 14 15 15 15 14 15 16 16 14 13 14 16 17 16 14 14 16 17 20 23 24 25 27 29 27 28 36 41 42 47 54 61 62 60 62 64 65 67 67 65 68 71 72 72 72 70 71 75 76 74 75 76 80 82
11 10 8 8 8 7 6 5 5 7 9 9 10 10 10 10 10 13 16 17 16 15 14 15 16 17 15 15 16 15 13 12 12 12 13 14 15 15 14 15 16 16 15 15 16 19 20 19 18 18 19 18 19 21 25 26 25 27 27 27 33 40 43 47 51 56 58 58 60 63 65 66 68 66 66 69 69 69 70 69 72 75 77 77 75 75 80 83
12 11 9 8 7 8 7 5 5 7 8 9 10 10 11 10 11 13 16 17 18 17 15 15 16 16 16 15 15 15 13 12 12 12 12 13 13 14 14 15 16 16 16 15 15 16 17 18 19 19 19 19 17 17 21 24 22 23 24 22 27 36 41 46 50 52 54 57 57 59 64 65 64 64 64 68 69 67 66 68 71 72 72 74 74 73 80 85
11 12 11 9 8 7 7 6 5 7 7 8 10 11 11 11 11 12 16 20 21 19 16 15 16 16 16 15 15 16 14 12 12 12 12 12 12 14 14 14 15 16 16 15 14 16 16 16 17 18 18 18 17 17 17 19 21 21 21 20 23 31 39 45 48 49 53 58 54 52 59 61 59 60 63 68 69 66 65 65 68 72 74 77 74 72 78 84
12 12 11 11 9 7 8 8 6 6 7 8 9 11 12 12 12 12 17 25 24 20 17 16 16 16 15 15 15 16 15 13 12 12 11 10 12 13 14 16 16 16 16 15 15 17 16 16 17 19 19 18 16 16 16 16 19 19 17 17 20 28 38 44 45 47 53 55 47 42 51 56 55 56 60 66 68 66 64 63 66 72 79 79 76 76 78 80
14 13 11 12 11 8 8 8 7 6 6 7 9 10 12 11 11 12 20 30 27 19 17 16 15 15 15 15 15 16 16 13 11 11 11 12 12 14 16 18 16 16 17 16 17 16 16 17 18 19 18 15 13 14 15 15 16 15 14 16 24 29 34 38 38 41 46 44 39 39 44 51 52 52 56 62 65 64 62 62 62 69 78 77 75 79 80 79
15 15 12 12 12 11 9 8 8 7 6 7 7 9 11 11 12 16 24 31 25 17 17 16 14 14 14 15 15 15 15 14 13 12 11 12 14 15 18 19 18 18 17 17 18 18 17 16 16 17 14 13 13 13 14 14 13 14 14 16 22 26 29 33 33 36 38 33 34 39 43 48 50 48 51 57 62 66 66 65 63 67 75 76 75 79 80 80
15 15 14 12 12 13 10 8 8 7 7 7 6 8 11 10 11 17 26 29 22 17 17 16 15 15 14 15 16 15 14 13 14 14 13 13 14 17 19 19 20 21 20 20 21 19 17 16 16 17 16 16 18 18 16 15 15 16 16 15 17 20 24 28 30 34 31 24 27 36 40 44 48 48 52 58 66 70 68 66 66 67 70 72 75 78 78 78
14 15 14 12 11 12 11 9 8 8 8 7 6 8 9 11 15 19 26 28 23 19 17 16 16 14 13 15 17 17 15 13 13 14 14 15 15 17 18 18 21 24 25 26 24 20 18 19 20 22 20 18 19 20 18 17 17 18 18 17 17 21 23 25 33 33 27 25 28 34 38 40 43 52 59 63 66 66 64 63 66 68 69 70 74 77 76 77
14 14 14 12 10 11 11 10 9 10 10 8 7 7 8 13 20 23 24 25 23 20 17 16 16 15 14 15 16 17 15 13 13 14 14 16 16 18 19 20 23 26 28 29 26 22 22 24 24 23 22 19 19 20 19 18 18 19 21 20 18 23 26 26 34 31 23 28 34 38 45 45 46 53 59 60 60 62 62 62 67 71 71 70 74 78 78 79
14 14 14 11 9 11 11 10 10 9 9 9 7 6 10 14 17 20 22 23 23 21 17 15 16 15 14 14 15 17 15 14 14 14 15 17 20 21 22 24 26 27 29 29 26 26 27 27 25 22 23 23 21 22 22 22 22 20 24 26 25 30 32 29 35 33 27 28 34 42 51 53 56 58 58 57 58 64 66 63 65 69 69 68 70 74 76 77
14 13 12 10 9 9 10 11 10 8 8 10 7 8 14 18 17 19 23 23 22 20 16 15 14 14 14 15 16 18 17 17 17 17 18 19 21 22 21 24 24 26 29 27 27 29 29 26 24 24 27 26 23 25 25 25 25 23 24 28 31 36 39 38 38 37 34 31 32 41 51 60 68 67 62 62 61 65 69 66 65 69 70 69 70 72 72 72
13 11 10 9 8 9 10 10 10 8 8 9 9 10 14 16 20 23 24 23 21 18 17 16 15 13 14 16 18 19 19 19 19 19 21 21 19 20 21 23 22 24 28 28 27 30 30 28 28 28 30 29 26 27 26 25 24 23 24 28 31 36 39 41 40 37 35 36 39 45 53 64 74 72 67 65 63 64 67 67 68 70 70 69 69 71 73 72
13 10 8 9 8 9 10 10 10 8 7 9 12 14 14 15 20 23 24 22 19 17 16 16 16 13 14 17 18 19 20 20 21 20 21 21 20 21 24 24 24 25 27 28 29 30 30 30 29 29 30 30 29 27 24 24 24 23 24 27 28 32 36 40 42 40 38 48 58 61 60 63 66 68 66 65 66 66 66 67 69 69 67 65 65 68 72 74
15 12 10 10 10 10 9 10 11 9 7 11 14 13 13 14 17 21 22 20 18 18 16 16 16 15 15 18 19 19 19 20 22 20 20 20 20 21 24 24 25 27 28 29 31 30 30 30 28 29 31 30 29 26 23 22 24 26 26 27 28 30 33 37 39 42 45 54 64 67 68 67 63 63 64 65 69 67 64 66 67 66 64 63 63 63 67 72
16 15 15 15 14 11 10 12 11 8 8 11 13 14 14 13 14 20 23 20 17 17 16 17 19 18 17 19 20 21 20 20 20 20 22 22 20 20 22 23 24 26 28 29 29 29 30 30 29 30 30 29 27 25 26 24 24 27 27 28 30 29 32 36 39 46 51 54 59 66 72 71 66 64 64 65 68 66 65 66 65 66 66 64 63 61 62 67
18 17 19 21 17 13 12 12 9 8 10 10 14 19 18 14 14 18 20 17 16 16 16 19 21 20 19 18 20 21 21 21 21 21 23 23 22 21 22 22 23 24 25 25 25 28 30 30 30 31 30 30 29 27 28 27 27 29 27 29 32 32 33 35 37 44 49 53 59 65 69 67 66 66 63 62 66 66 66 65 63 64 66 66 65 61 59 62
19 19 23 25 22 17 16 12 9 10 11 11 15 16 14 13 15 17 16 15 16 16 18 20 20 20 20 19 20 21 22 21 21 22 23 22 22 23 22 23 23 23 23 22 21 25 30 31 31 32 30 30 30 29 30 31 29 28 29 32 34 34 36 36 36 41 49 58 63 61 61 62 61 62 61 62 66 65 62 62 62 63 64 66 67 64 62 60
20 21 26 28 28 26 21 15 12 13 12 14 17 15 11 10 12 14 15 15 15 17 19 20 19 21 21 19 20 22 22 22 21 21 22 21 22 23 22 23 23 22 21 20 20 22 28 31 31 31 31 31 30 28 29 31 29 27 29 31 30 29 32 35 37 40 47 58 61 58 58 58 55 58 59 60 63 63 61 62 64 63 63 65 66 66 64 61
22 24 28 31 32 30 25 21 18 18 17 17 17 14 10 10 10 12 13 13 15 17 19 19 20 20 21 21 21 21 22 22 21 21 21 21 22 22 22 22 22 21 21 21 20 20 23 29 33 32 31 31 30 27 26 27 27 29 29 27 27 28 30 34 39 40 41 46 49 50 52 51 51 55 56 56 59 60 61 62 63 63 64 65 66 64 63 62
22 24 27 32 34 32 28 29 27 25 23 21 18 14 11 11 11 11 11 13 16 17 18 20 19 20 21 22 22 21 22 22 21 21 21 21 23 22 21 21 20 20 21 21 20 19 23 29 33 32 32 31 28 26 26 26 27 30 30 29 30 31 32 37 41 40 37 37 40 42 44 45 48 52 52 53 54 54 55 57 59 60 61 63 63 60 59 61
22 22 24 30 35 34 32 36 35 32 30 27 24 19 15 12 12 11 11 15 18 19 19 19 19 19 21 22 21 22 23 22 22 22 22 22 23 22 21 22 21 20 21 21 21 21 23 26 27 31 36 34 27 26 27 26 26 27 28 31 31 31 34 36 39 40 37 36 40 40 40 44 46 49 51 51 50 48 48 51 55 58 59 60 59 59 58 58
23 23 23 30 36 35 36 38 38 39 39 35 30 27 22 17 13 12 13 17 19 19 19 19 18 18 20 21 22 22 23 23 23 23 23 23 22 22 22 22 21 21 21 21 22 21 22 26 27 27 31 30 27 28 27 24 25 25 25 28 30 31 32 32 35 38 36 37 39 37 40 45 45 47 51 51 49 47 46 49 54 57 59 59 58 58 58 57
24 24 24 28 33 34 37 38 37 39 40 38 36 33 28 21 16 15 16 18 19 19 19 19 18 18 20 21 21 22 23 23 23 23 24 23 23 23 22 22 22 22 21 21 22 23 24 29 33 29 26 27 30 30 27 25 26 25 25 27 29 31 30 30 33 36 34 35 37 36 39 42 41 43 46 48 47 46 45 47 52 55 57 57 56 57 59 59
27 29 29 32 33 34 37 38 38 39 40 40 41 39 32 25 20 17 18 19 20 19 20 20 19 18 20 20 21 22 22 22 23 25 24 24 24 24 22 23 23 21 22 22 22 26 29 31 35 34 28 25 29 31 29 28 27 25 25 26 28 31 31 32 34 35 36 37 36 39 41 39 40 42 44 47 48 48 47 48 50 54 54 54 54 55 59 59
31 33 35 38 38 38 39 39 39 41 40 40 43 41 36 32 25 20 19 21 21 21 21 21 19 19 21 22 22 22 21 21 23 25 25 25 26 25 24 24 23 23 25 24 23 29 32 27 30 34 28 23 26 28 27 26 25 25 25 25 29 33 33 32 32 33 36 36 35 40 43 40 41 44 45 48 49 49 48 48 49 51 51 51 52 52 55 58
34 35 37 40 43 44 43 41 41 41 39 39 42 43 41 39 33 26 22 22 23 23 23 22 22 22 22 23 24 24 24 23 24 24 25 26 26 25 25 24 25 26 28 26 26 31 34 29 27 28 26 24 25 24 23 23 23 26 27 26 29 34 33 32 33 35 35 36 36 40 43 42 43 46 47 47 47 46 45 44 45 47 47 48 49 49 52 55
38 39 40 40 43 43 42 42 42 41 40 40 43 44 42 43 40 32 27 27 28 28 26 25 25 25 24 24 26 27 27 25 25 26 26 25 25 26 25 24 25 28 28 27 28 31 33 34 34 30 26 26 24 22 23 23 23 25 28 27 29 32 34 33 36 39 38 40 43 43 43 43 45 49 50 47 44 44 43 43 43 43 44 46 46 47 51 54
40 43 44 44 44 42 41 43 44 43 44 44 44 42 40 43 43 37 31 30 32 32 30 29 30 28 25 25 26 27 27 27 27 27 27 26 26 26 25 25 26 27 27 28 28 29 30 34 39 36 30 29 28 25 23 24 26 27 28 29 29 31 34 35 39 42 42 44 48 47 46 47 48 50 50 46 43 43 42 42 40 40 41 42 43 46 51 54
40 42 45 47 47 44 41 43 44 45 48 49 47 44 41 41 43 40 35 33 34 36 35 33 33 31 28 27 28 27 27 27 27 27 26 25 25 24 24 25 27 27 29 29 29 29 30 32 37 38 33 31 31 29 27 28 31 31 30 29 31 33 35 36 39 43 44 47 51 49 46 48 49 49 48 45 43 42 41 41 40 39 41 41 43 47 52 56
38 39 42 46 49 46 44 46 46 46 49 50 48 47 44 41 43 43 41 38 35 36 37 33 33 34 32 31 31 30 28 27 26 26 26 25 25 25 24 26 28 29 31 32 30 31 33 31 32 34 32 32 33 32 32 32 31 33 34 34 36 38 38 37 40 43 46 49 50 47 46 47 48 48 46 44 43 42 41 41 41 41 41 43 46 49 53 58